O872 KPVU-KSLC

Flight info

Callsign O872
Flight time 0h 19m
Altitude 7500
Route VFR
Aircraft CC19/L-SFG/C

Departure

Time 2026-04-19 03:18
Airport Provo Municipal Airport (KPVU)

Arrival

Time 2026-04-19 03:37
Airport Salt Lake City International Airport (KSLC)
Time Latitude Longitude Altitude Speed Heading
2026-04-19 03:04 40.21711 -111.71823 4496 ft 0 kts 237°
2026-04-19 03:14 40.21711 -111.71824 4496 ft 1 kts 237°
2026-04-19 03:14 40.21773 -111.71909 4499 ft 20 kts 313°
2026-04-19 03:14 40.21880 -111.72017 4498 ft 22 kts 324°
2026-04-19 03:14 40.21993 -111.72099 4497 ft 17 kts 333°
2026-04-19 03:15 40.22058 -111.72143 4496 ft 9 kts 336°
2026-04-19 03:15 40.22174 -111.72236 4498 ft 24 kts 324°
2026-04-19 03:15 40.22330 -111.72373 4498 ft 29 kts 326°
2026-04-19 03:15 40.22508 -111.72532 4500 ft 33 kts 326°
2026-04-19 03:16 40.22694 -111.72698 4499 ft 31 kts 327°
2026-04-19 03:16 40.22860 -111.72844 4499 ft 29 kts 327°
2026-04-19 03:16 40.23028 -111.72991 4502 ft 26 kts 330°
2026-04-19 03:16 40.23091 -111.73103 4500 ft 17 kts 237°
2026-04-19 03:17 40.23068 -111.73144 4499 ft 0 kts 230°
2026-04-19 03:17 40.23033 -111.73211 4502 ft 13 kts 237°
2026-04-19 03:17 40.22884 -111.73121 4499 ft 60 kts 145°
2026-04-19 03:18 40.22343 -111.72624 4547 ft 115 kts 146°
2026-04-19 03:18 40.21693 -111.72023 4834 ft 118 kts 144°
2026-04-19 03:18 40.21003 -111.71391 5003 ft 123 kts 145°
2026-04-19 03:18 40.20389 -111.70640 5138 ft 123 kts 115°
2026-04-19 03:19 40.20461 -111.69572 5261 ft 120 kts 66°
2026-04-19 03:19 40.20908 -111.68668 5387 ft 123 kts 36°
2026-04-19 03:19 40.21704 -111.68274 5524 ft 122 kts 21°
2026-04-19 03:19 40.22508 -111.67908 5656 ft 122 kts 21°
2026-04-19 03:20 40.23321 -111.67587 5781 ft 122 kts 19°
2026-04-19 03:20 40.24138 -111.67276 5906 ft 122 kts 19°
2026-04-19 03:20 40.24963 -111.67000 6025 ft 124 kts
2026-04-19 03:20 40.25735 -111.67473 6121 ft 129 kts 313°
2026-04-19 03:21 40.26421 -111.68209 6250 ft 128 kts 336°
2026-04-19 03:21 40.27227 -111.68678 6377 ft 125 kts 337°
2026-04-19 03:21 40.27985 -111.69226 6486 ft 125 kts 326°
2026-04-19 03:21 40.28713 -111.69901 6500 ft 130 kts 326°
2026-04-19 03:22 40.29460 -111.70586 6498 ft 132 kts 326°
2026-04-19 03:22 40.30210 -111.71275 6503 ft 131 kts 326°
2026-04-19 03:22 40.30959 -111.71964 6500 ft 131 kts 326°
2026-04-19 03:22 40.31705 -111.72646 6496 ft 130 kts 326°
2026-04-19 03:23 40.32450 -111.73308 6497 ft 129 kts 326°
2026-04-19 03:23 40.33193 -111.73967 6491 ft 129 kts 326°
2026-04-19 03:23 40.33953 -111.74599 6484 ft 129 kts 328°
2026-04-19 03:23 40.34715 -111.75225 6490 ft 129 kts 328°
2026-04-19 03:24 40.35475 -111.75850 6499 ft 129 kts 328°
2026-04-19 03:24 40.36256 -111.76424 6499 ft 129 kts 335°
2026-04-19 03:24 40.37067 -111.76904 6500 ft 129 kts 336°
2026-04-19 03:24 40.37884 -111.77387 6500 ft 129 kts 336°
2026-04-19 03:25 40.38701 -111.77870 6500 ft 129 kts 336°
2026-04-19 03:25 40.39497 -111.78342 6601 ft 123 kts 336°
2026-04-19 03:25 40.40267 -111.78795 6708 ft 119 kts 336°
2026-04-19 03:25 40.41019 -111.79238 6825 ft 117 kts 336°
2026-04-19 03:26 40.41754 -111.79669 6975 ft 118 kts 336°
2026-04-19 03:26 40.42513 -111.80112 7091 ft 122 kts 336°
2026-04-19 03:26 40.43320 -111.80578 7098 ft 129 kts 336°
2026-04-19 03:26 40.44119 -111.81038 7266 ft 123 kts 336°
2026-04-19 03:27 40.44903 -111.81484 7397 ft 124 kts 336°
2026-04-19 03:27 40.45724 -111.81952 7383 ft 132 kts 336°
2026-04-19 03:27 40.46591 -111.82439 7269 ft 140 kts 336°
2026-04-19 03:27 40.47507 -111.82952 7122 ft 145 kts 336°
2026-04-19 03:28 40.48432 -111.83474 6940 ft 144 kts 336°
2026-04-19 03:28 40.49351 -111.84001 6742 ft 142 kts 336°
2026-04-19 03:28 40.50248 -111.84527 6517 ft 139 kts 336°
2026-04-19 03:28 40.51096 -111.85021 6495 ft 131 kts 336°
2026-04-19 03:29 40.51921 -111.85501 6487 ft 128 kts 336°
2026-04-19 03:29 40.52739 -111.85970 6487 ft 127 kts 338°
2026-04-19 03:29 40.53560 -111.86394 6487 ft 127 kts 338°
2026-04-19 03:29 40.54379 -111.86826 6484 ft 127 kts 338°
2026-04-19 03:30 40.55200 -111.87259 6485 ft 127 kts 338°
2026-04-19 03:30 40.56029 -111.87659 6480 ft 127 kts 348°
2026-04-19 03:30 40.56903 -111.87526 6488 ft 127 kts
2026-04-19 03:30 40.57776 -111.87350 6491 ft 126 kts
2026-04-19 03:31 40.58647 -111.87178 6492 ft 127 kts
2026-04-19 03:31 40.59528 -111.87006 6387 ft 133 kts
2026-04-19 03:31 40.60465 -111.86900 6161 ft 139 kts
2026-04-19 03:31 40.61443 -111.86863 5937 ft 142 kts 358°
2026-04-19 03:32 40.62423 -111.87084 5710 ft 144 kts 349°
2026-04-19 03:32 40.63413 -111.87347 5501 ft 145 kts 349°
2026-04-19 03:32 40.64372 -111.87613 5487 ft 137 kts 349°
2026-04-19 03:32 40.65297 -111.87867 5477 ft 135 kts 351°
2026-04-19 03:33 40.66227 -111.88028 5468 ft 134 kts 354°
2026-04-19 03:33 40.67143 -111.88182 5474 ft 135 kts 354°
2026-04-19 03:33 40.68073 -111.88336 5476 ft 134 kts 354°
2026-04-19 03:33 40.69001 -111.88488 5477 ft 134 kts 354°
2026-04-19 03:34 40.69920 -111.88641 5478 ft 134 kts 354°
2026-04-19 03:34 40.70850 -111.88797 5464 ft 135 kts 354°
2026-04-19 03:34 40.71779 -111.88957 5474 ft 133 kts 350°
2026-04-19 03:34 40.72604 -111.89498 5477 ft 134 kts 326°
2026-04-19 03:35 40.73347 -111.90245 5471 ft 135 kts 321°
2026-04-19 03:35 40.74052 -111.91073 5480 ft 136 kts 315°
2026-04-19 03:35 40.74554 -111.92119 5465 ft 133 kts 297°
2026-04-19 03:35 40.74951 -111.93167 5502 ft 125 kts 289°
2026-04-19 03:36 40.75193 -111.94306 5292 ft 132 kts 285°
2026-04-19 03:36 40.75506 -111.95275 5160 ft 102 kts 303°
2026-04-19 03:36 40.75980 -111.95948 4777 ft 96 kts 323°
2026-04-19 03:36 40.76548 -111.96225 4544 ft 83 kts 357°
2026-04-19 03:37 40.77106 -111.96219 4360 ft 75 kts
2026-04-19 03:37 40.77589 -111.96206 4282 ft 60 kts
2026-04-19 03:37 40.77986 -111.96195 4268 ft 50 kts
2026-04-19 03:37 40.78268 -111.96197 4223 ft 32 kts
2026-04-19 03:38 40.78449 -111.96209 4223 ft 20 kts 358°
2026-04-19 03:38 40.78566 -111.96207 4228 ft 18 kts
2026-04-19 03:38 40.78717 -111.96176 4229 ft 25 kts 21°
2026-04-19 03:38 40.78857 -111.96077 4231 ft 12 kts 52°
2026-04-19 03:39 40.78758 -111.96007 4231 ft 29 kts 188°
2026-04-19 03:39 40.78621 -111.96005 4227 ft 24 kts 187°
2026-04-19 03:39 40.78540 -111.95959 4225 ft 15 kts 122°
2026-04-19 03:39 40.78439 -111.95883 4224 ft 14 kts 179°
2026-04-19 03:40 40.78411 -111.95880 4224 ft 0 kts 183°